Flag for Canada Weather past 2 weeks in Cumberland County, Nova Scotia, Canada

Now
55 °F

Cool.


Feels Like: 55 °F
Forecast: 56 / 71 °F
Wind: No wind

Location: Kentville

Current Time: Aug 21, 2014 at 7:50:16 AM

Latest Report: Aug 21, 2014 at 7:00 AM


Visibility: N/A

Pressure: 30.09 "Hg

Humidity: 95%

Dew point: 54 °F

Location of Cumberland CountyLocation

Historic Weather in Cumberland County — Graph

°F

Cumberland County temperature yesterday

Maximum temperature yesterday: 77 °F (at 4:00 PM)
Minimum temperature yesterday: 59 °F (at 6:00 AM)
Average temperature yesterday: 68 °F

Past Weeks' High & Low Weather Summary

 TemperatureHumidityPressure
High77 °F (Aug 20, 4:00 PM)100% (Aug 15, 11:00 PM)30.18 "Hg (Aug 15, 11:00 PM)
Low51 °F (Aug 12, 6:00 AM)36% (Aug 12, 3:00 PM)29.60 "Hg (Aug 18, 6:00 PM)
Average64 °F79%29.90 "Hg
* Reported Aug 6 6:00 AM — Aug 21 6:00 AM, Cumberland County, Weather by CustomWeather, © 2014

Note: Actual official high and low records may vary slightly from our data, if they occured in-between our weather recording intervals... More about our weather records

Advertising

Cumberland County weather history for previous 24 hours

 ConditionsComfort  
Time TempWeatherWind HumidityBarometerVisibility
6:00 AM
Aug 21
55 °FCool.2 mph95%30.08 "HgN/A
5:00 AM57 °FCool.2 mph94%30.06 "HgN/A
4:00 AM58 °FCool.1 mph94%30.06 "HgN/A
3:00 AM60 °FCool.No wind93%30.07 "HgN/A
2:00 AM61 °FCool.1 mph92%30.07 "HgN/A
1:00 AM61 °FCool.1 mph90%30.08 "HgN/A
12:00 AM63 °FMild.2 mph86%30.06 "HgN/A
11:00 PM
Aug 20
63 °FMild.No wind84%30.05 "HgN/A
10:00 PM62 °FCool.2 mph83%30.05 "HgN/A
9:00 PM64 °FMild.3 mph78%30.03 "HgN/A
8:00 PM68 °FMild.6 mph64%30.02 "HgN/A
7:00 PM74 °FMild.7 mph56%30.00 "HgN/A
6:00 PM75 °FMild.3 mph57%29.98 "HgN/A
5:00 PM77 °FWarm.6 mph51%29.97 "HgN/A
4:00 PM77 °FWarm.8 mph49%29.96 "HgN/A
3:00 PM77 °FMild.9 mph50%29.96 "HgN/A
2:00 PM76 °FMild.12 mph51%29.96 "HgN/A
1:00 PM77 °FMild.8 mph51%29.95 "HgN/A
12:00 PM75 °FMild.8 mph57%29.96 "HgN/A
11:00 AM73 °FMild.6 mph63%29.95 "HgN/A
10:00 AM69 °FMild.5 mph63%29.95 "HgN/A
9:00 AM66 °FMild.5 mph73%29.94 "HgN/A
8:00 AM63 °FMild.5 mph79%29.93 "HgN/A
7:00 AM60 °FCool.3 mph85%29.93 "HgN/A
Weather by CustomWeather, © 2014

See weather overviewHow to use our weather pages